TimeCST,TemperatureF,Dew PointF,Humidity,Sea Level PressureIn,VisibilityMPH,Wind Direction,Wind SpeedMPH,Gust SpeedMPH,PrecipitationIn,Events,Conditions,WindDirDegrees,DateUTC
12:15 AM,-22.9,-28.3,76,30.29,10.0,Calm,Calm,-,N/A,,Clear,0,2014-01-01 06:15:00
12:35 AM,-22.5,-27.9,76,30.29,10.0,Calm,Calm,-,N/A,,Clear,0,2014-01-01 06:35:00
12:55 AM,-21.8,-27.4,75,30.29,10.0,Calm,Calm,-,N/A,,Scattered Clouds,0,2014-01-01 06:55:00
1:15 AM,-20.6,-26.1,75,30.28,10.0,Calm,Calm,-,N/A,,Scattered Clouds,0,2014-01-01 07:15:00
1:35 AM,-18.6,-23.8,77,30.28,10.0,North,3.5,-,N/A,,Mostly Cloudy,10,2014-01-01 07:35:00
1:55 AM,-15.5,-20.7,77,30.30,10.0,Calm,Calm,-,N/A,,Overcast,0,2014-01-01 07:55:00
2:15 AM,-15.3,-20.4,78,30.32,10.0,Calm,Calm,-,N/A,,Overcast,0,2014-01-01 08:15:00
2:35 AM,-13.9,-18.4,80,30.32,10.0,Calm,Calm,-,N/A,,Overcast,0,2014-01-01 08:35:00
2:55 AM,-14.1,-18.8,79,30.30,10.0,Calm,Calm,-,N/A,,Overcast,0,2014-01-01 08:55:00
3:15 AM,-14.3,-19.3,78,30.30,10.0,Calm,Calm,-,N/A,,Overcast,0,2014-01-01 09:15:00
3:35 AM,-11.7,-16.1,81,30.29,10.0,Calm,Calm,-,N/A,,Overcast,0,2014-01-01 09:35:00
3:55 AM,-12.3,-17.0,80,30.30,10.0,Calm,Calm,-,N/A,,Overcast,0,2014-01-01 09:55:00
4:15 AM,-13.5,-18.4,79,30.29,10.0,NNE,4.6,-,N/A,,Overcast,20,2014-01-01 10:15:00
4:35 AM,-13.7,-18.4,80,30.29,10.0,North,3.5,-,N/A,,Mostly Cloudy,10,2014-01-01 10:35:00
4:55 AM,-13.0,-17.7,80,30.29,10.0,Calm,Calm,-,N/A,,Mostly Cloudy,0,2014-01-01 10:55:00
5:15 AM,-13.4,-18.2,79,30.30,10.0,Calm,Calm,-,N/A,,Scattered Clouds,0,2014-01-01 11:15:00
5:35 AM,-13.4,-18.4,78,30.30,10.0,Calm,Calm,-,N/A,,Mostly Cloudy,0,2014-01-01 11:35:00
5:55 AM,-12.8,-17.7,79,30.31,10.0,Calm,Calm,-,N/A,,Overcast,0,2014-01-01 11:55:00
6:15 AM,-12.6,-17.5,79,30.31,10.0,Calm,Calm,-,N/A,,Overcast,0,2014-01-01 12:15:00
6:35 AM,-12.5,-17.3,79,30.32,10.0,Calm,Calm,-,N/A,,Overcast,0,2014-01-01 12:35:00
6:55 AM,-12.1,-16.8,80,30.33,10.0,Calm,Calm,-,N/A,,Overcast,0,2014-01-01 12:55:00
7:15 AM,-11.9,-16.6,80,30.33,10.0,Calm,Calm,-,N/A,,Overcast,0,2014-01-01 13:15:00
7:35 AM,-11.7,-16.6,79,30.33,10.0,Calm,Calm,-,N/A,,Overcast,0,2014-01-01 13:35:00
7:55 AM,-11.4,-16.1,80,30.33,10.0,Calm,Calm,-,N/A,,Overcast,0,2014-01-01 13:55:00
8:15 AM,-11.0,-15.9,79,30.34,10.0,Calm,Calm,-,N/A,,Overcast,0,2014-01-01 14:15:00
8:35 AM,-10.3,-15.0,80,30.35,10.0,Calm,Calm,-,N/A,,Overcast,0,2014-01-01 14:35:00
8:55 AM,-9.8,-14.6,79,30.36,10.0,Calm,Calm,-,N/A,,Overcast,0,2014-01-01 14:55:00
9:15 AM,-8.9,-13.9,79,30.36,10.0,Calm,Calm,-,N/A,,Overcast,0,2014-01-01 15:15:00
9:35 AM,-8.1,-12.8,80,30.37,10.0,Calm,Calm,-,N/A,,Overcast,0,2014-01-01 15:35:00
9:55 AM,-7.6,-12.3,80,30.38,10.0,Calm,Calm,-,N/A,,Overcast,0,2014-01-01 15:55:00
10:15 AM,-6.7,-11.4,80,30.38,10.0,Calm,Calm,-,N/A,,Overcast,0,2014-01-01 16:15:00
10:35 AM,-5.1,-9.8,80,30.40,10.0,North,3.5,-,N/A,,Overcast,10,2014-01-01 16:35:00
10:55 AM,-4.5,-9.6,79,30.38,10.0,Calm,Calm,-,N/A,,Overcast,0,2014-01-01 16:55:00
11:15 AM,-3.5,-9.0,77,30.37,10.0,North,5.8,-,N/A,,Overcast,10,2014-01-01 17:15:00
11:35 AM,-2.4,-8.5,75,30.36,10.0,Calm,Calm,-,N/A,,Overcast,0,2014-01-01 17:35:00
11:55 AM,-1.5,-8.1,73,30.35,10.0,North,3.5,-,N/A,,Overcast,360,2014-01-01 17:55:00
12:15 PM,-0.6,-7.6,72,30.35,10.0,ENE,3.5,-,N/A,,Overcast,60,2014-01-01 18:15:00
12:35 PM,0.3,-7.6,69,30.35,10.0,East,3.5,-,N/A,,Overcast,80,2014-01-01 18:35:00
12:55 PM,0.3,-7.6,69,30.34,10.0,Calm,Calm,-,N/A,,Overcast,0,2014-01-01 18:55:00
1:15 PM,0.9,-8.0,66,30.33,10.0,NE,6.9,-,N/A,,Overcast,50,2014-01-01 19:15:00
1:35 PM,1.2,-7.2,68,30.33,10.0,NNE,8.1,-,N/A,,Overcast,20,2014-01-01 19:35:00
1:55 PM,1.2,-7.4,67,30.33,10.0,North,4.6,-,N/A,,Overcast,10,2014-01-01 19:55:00
2:15 PM,1.4,-7.2,67,30.32,10.0,NNE,3.5,-,N/A,,Overcast,20,2014-01-01 20:15:00
2:35 PM,1.8,-7.1,67,30.32,10.0,NNE,5.8,-,N/A,,Overcast,30,2014-01-01 20:35:00
2:55 PM,1.9,-6.7,67,30.32,10.0,North,4.6,-,N/A,,Overcast,10,2014-01-01 20:55:00
3:15 PM,1.9,-6.7,67,30.32,10.0,North,4.6,-,N/A,,Overcast,10,2014-01-01 21:15:00
3:35 PM,1.9,-6.7,67,30.32,10.0,East,3.5,-,N/A,,Overcast,80,2014-01-01 21:35:00
3:55 PM,1.8,-6.3,69,30.32,10.0,NNE,4.6,-,N/A,,Overcast,30,2014-01-01 21:55:00
4:15 PM,1.9,-6.3,68,30.33,10.0,NE,3.5,-,N/A,,Overcast,50,2014-01-01 22:15:00
4:35 PM,1.8,-6.3,69,30.33,10.0,Calm,Calm,-,N/A,,Overcast,0,2014-01-01 22:35:00
4:55 PM,1.4,-6.0,71,30.33,10.0,NE,3.5,-,N/A,,Overcast,50,2014-01-01 22:55:00
5:15 PM,1.2,-6.0,72,30.33,10.0,Calm,Calm,-,N/A,,Overcast,0,2014-01-01 23:15:00
5:35 PM,1.2,-6.2,71,30.33,10.0,NE,3.5,-,N/A,,Overcast,50,2014-01-01 23:35:00
5:55 PM,1.0,-6.3,71,30.34,10.0,ENE,3.5,-,N/A,,Overcast,60,2014-01-01 23:55:00
6:15 PM,0.9,-6.3,72,30.34,10.0,Calm,Calm,-,N/A,,Overcast,0,2014-01-02 00:15:00
6:35 PM,0.7,-6.3,72,30.34,10.0,NNE,3.5,-,N/A,,Overcast,30,2014-01-02 00:35:00
6:55 PM,0.3,-6.2,74,30.34,10.0,NNE,3.5,-,N/A,,Overcast,30,2014-01-02 00:55:00
7:15 PM,0.1,-6.0,75,30.34,10.0,NE,3.5,-,N/A,,Overcast,40,2014-01-02 01:15:00
7:35 PM,-0.0,-6.2,75,30.35,10.0,Calm,Calm,-,N/A,,Overcast,0,2014-01-02 01:35:00
7:55 PM,0.1,-6.0,75,30.34,10.0,North,3.5,-,N/A,,Overcast,360,2014-01-02 01:55:00
8:15 PM,-0.4,-6.0,77,30.33,10.0,North,4.6,-,N/A,,Overcast,360,2014-01-02 02:15:00
8:35 PM,-0.6,-5.6,79,30.33,10.0,North,4.6,-,N/A,,Overcast,360,2014-01-02 02:35:00
8:55 PM,-0.8,-5.4,81,30.33,10.0,North,5.8,-,N/A,,Overcast,360,2014-01-02 02:55:00
9:15 PM,-1.5,-6.0,81,30.32,10.0,North,3.5,-,N/A,,Overcast,10,2014-01-02 03:15:00
9:35 PM,-1.8,-6.2,82,30.32,10.0,North,3.5,-,N/A,,Overcast,10,2014-01-02 03:35:00
9:55 PM,-2.2,-6.7,81,30.32,10.0,North,4.6,-,N/A,,Overcast,10,2014-01-02 03:55:00
10:15 PM,-1.8,-6.7,80,30.32,10.0,North,3.5,-,N/A,,Overcast,360,2014-01-02 04:15:00
10:35 PM,-2.2,-6.9,80,30.32,10.0,North,3.5,-,N/A,,Overcast,360,2014-01-02 04:35:00
10:55 PM,-2.6,-7.4,80,30.32,10.0,North,3.5,-,N/A,,Overcast,360,2014-01-02 04:55:00
11:15 PM,-2.4,-7.6,78,30.32,10.0,North,3.5,-,N/A,,Overcast,360,2014-01-02 05:15:00
11:35 PM,-2.7,-7.6,80,30.32,10.0,North,4.6,-,N/A,,Overcast,360,2014-01-02 05:35:00
11:55 PM,-3.3,-7.6,82,30.31,10.0,North,3.5,-,N/A,,Overcast,10,2014-01-02 05:55:00